Dewpoint
63 64 66 68 69 70 70 70 71 70 70 69 68 68 68 68 66 66 66 65 63 61 62 63 65 65 66 66 67 68 67 67 68 68 67 66 66 66 66 68 67 67 68
62 63 63 65 67 69 69 70 69 69 70 69 68 68 67 68 67 67 66 62 60 63 61 61 66 66 65 64 65 66 67 67 66 66 66 66 66 65 66 65 64 65 67
61 61 64 64 65 66 68 69 69 68 68 69 68 68 67 67 67 66 66 66 66 62 61 63 65 65 65 66 63 64 66 67 67 66 66 65 65 65 66 63 66 66 66
61 63 64 64 64 65 66 67 68 68 67 67 68 68 67 67 66 65 65 62 62 62 62 65 66 64 64 66 64 64 65 66 67 67 66 65 64 66 64 63 65 66 66
62 64 64 64 63 63 66 67 67 67 66 66 67 67 68 66 64 64 64 64 64 64 65 63 62 65 66 65 65 64 63 65 66 66 65 63 61 64 63 64 64 66 66
63 64 65 65 64 63 66 67 66 66 67 66 67 68 67 66 64 63 61 62 64 66 66 65 60 62 65 63 59 60 64 65 65 65 64 62 63 65 63 64 64 64 65
64 64 65 65 65 65 64 64 65 65 65 66 67 67 67 67 66 64 64 65 65 63 63 63 62 59 60 64 65 64 65 65 65 64 63 61 63 66 65 64 64 64 64
63 63 64 64 64 64 63 62 63 64 65 65 65 67 66 66 67 66 66 66 66 63 61 60 60 59 56 58 63 64 64 65 65 64 62 60 59 65 65 66 65 66 65
63 64 64 64 64 63 62 62 61 62 64 65 65 65 66 65 64 64 64 63 64 64 64 64 64 63 63 63 63 63 63 63 63 62 61 59 64 65 66 66 66 66 65
57 59 63 64 63 61 60 60 61 61 62 64 65 65 64 63 62 62 61 62 62 62 61 60 62 63 62 62 62 62 63 62 62 61 60 60 64 63 64 65 66 66 66
53 57 56 58 62 61 58 59 60 61 62 63 63 63 64 63 62 59 60 60 59 59 57 56 56 59 57 56 58 60 61 60 59 58 59 61 62 62 64 64 66 66 65
45 51 54 56 58 59 59 60 60 62 62 62 62 61 61 62 61 59 59 59 59 58 58 57 55 54 53 54 55 60 58 57 57 57 57 60 61 61 62 65 64 65 65
44 47 52 57 59 59 59 61 61 60 60 59 59 60 58 59 59 60 60 60 59 57 57 56 56 55 53 53 54 54 55 55 56 57 58 59 60 60 61 62 63 65 64
43 46 52 55 57 56 55 58 58 58 57 58 58 58 57 58 57 57 56 57 56 57 56 56 56 55 52 53 54 55 55 55 55 57 57 58 58 59 59 59 61 63 64
38 43 49 53 55 55 53 52 51 50 50 51 52 52 54 56 56 56 55 53 55 55 56 56 56 55 54 54 55 55 55 55 55 56 57 59 59 58 58 59 59 60 62
34 42 46 49 51 52 53 51 49 47 46 46 49 51 52 53 53 54 54 53 52 53 54 54 53 53 55 57 57 57 57 57 56 56 56 57 58 59 58 58 58 59 60
34 40 42 44 48 48 51 49 47 45 44 45 48 48 47 51 48 47 46 47 47 49 51 49 50 50 50 52 53 56 56 56 58 58 57 58 58 59 58 57 57 57 58
35 37 39 40 45 45 47 46 45 40 40 44 47 46 45 44 46 45 45 43 39 42 42 35 37 35 37 36 38 41 53 50 48 49 55 58 59 58 59 58 57 57 56
34 35 36 32 38 39 38 40 39 39 39 43 47 45 44 42 39 38 42 40 37 40 37 36 35 36 34 35 34 33 33 34 38 41 46 53 57 58 58 58 58 58 57
33 33 34 32 30 36 36 35 38 37 36 40 44 43 42 40 37 35 40 40 37 37 38 36 35 37 37 34 36 35 34 37 36 37 44 47 51 56 58 57 57 57 57
34 32 31 32 33 34 32 32 33 35 36 37 36 40 40 39 36 34 35 38 38 36 37 37 37 35 33 36 34 34 33 33 33 33 38 39 45 38 56 57 57 56 55
32 33 32 32 32 33 32 33 32 32 34 35 36 37 38 38 36 35 34 35 34 34 33 34 39 36 37 35 35 33 30 32 32 34 33 34 34 41 35 42 53 55 56
33 33 34 33 33 34 32 32 33 35 35 33 34 36 37 36 37 37 36 37 36 35 34 36 35 34 33 36 35 34 32 30 33 33 33 33 34 34 36 38 46 51 49
34 36 36 35 35 34 35 31 30 30 30 30 30 31 35 37 38 38 37 38 38 37 36 38 38 37 36 35 37 36 36 36 34 32 33 33 33 33 35 37 43 47 51
33 36 38 38 37 37 36 36 32 31 33 32 32 32 35 38 40 39 38 37 37 37 34 33 32 31 34 34 33 34 34 34 35 32 29 30 31 31 32 34 37 44 49
35 35 37 37 36 37 37 37 37 34 33 33 33 33 35 36 33 32 31 31 30 29 28 29 28 26 25 28 30 31 31 29 28 29 28 28 27 29 29 29 31 36 40
Wind_Speed
8 14 14 12 14 14 15 15 14 10 8 10 10 9 8 11 14 13 18 23 22 14 10 7 9 12 6 3 5 4 5 9 10 11 11 12 12 12 12 11 7 14 13
14 13 16 15 14 15 14 15 16 17 12 10 9 8 7 8 8 8 11 21 25 16 11 5 3 6 11 9 1 2 1 3 4 5 7 6 7 9 10 10 3 12 13
17 12 13 14 12 13 13 14 16 17 16 15 8 8 10 10 12 10 6 2 12 16 13 6 7 4 8 20 7 2 2 0 1 3 2 3 2 3 9 9 9 17 15
16 12 11 14 15 14 12 15 15 15 15 15 13 12 12 12 9 7 6 2 2 3 12 12 10 3 11 7 25 7 6 4 4 7 7 6 4 5 6 10 10 12 14
16 14 14 14 12 12 13 14 14 14 14 14 14 11 10 7 5 4 2 4 3 3 10 9 9 8 14 22 21 22 12 7 6 9 13 8 11 12 11 9 10 11 14
16 15 14 13 13 12 13 14 14 14 12 12 13 13 8 6 6 4 2 3 1 6 9 11 8 12 17 25 29 13 22 13 10 10 15 11 10 14 13 12 11 10 11
16 15 14 15 14 12 11 10 11 11 11 11 12 11 9 4 3 4 3 4 5 8 8 10 12 10 14 12 16 21 23 17 10 11 12 10 9 21 17 15 13 12 12
19 16 14 15 15 13 11 10 8 8 8 9 10 10 8 8 10 11 12 14 10 5 3 2 7 5 4 6 6 15 13 11 8 12 11 10 12 20 17 15 15 13 14
16 15 14 14 13 12 10 9 8 6 6 5 7 10 10 12 12 15 14 13 15 13 15 13 3 5 1 3 6 5 8 7 9 11 9 10 9 18 17 15 14 15 16
14 15 10 9 11 12 10 10 10 7 6 5 4 7 11 10 12 15 14 13 13 12 12 11 9 8 6 3 4 4 5 7 9 14 8 8 14 14 13 13 13 14 17
16 13 10 10 9 12 11 11 13 11 10 8 6 7 12 8 9 11 13 12 13 13 11 10 9 5 6 4 1 3 6 7 11 12 11 7 8 10 13 16 17 17 18
15 14 10 5 4 4 6 12 13 11 11 12 10 8 8 9 11 11 11 8 8 6 7 6 4 3 2 2 4 0 2 3 7 10 12 13 13 12 13 16 18 20 21
13 12 9 6 2 5 6 11 10 11 10 7 10 10 9 7 7 10 8 4 3 4 2 3 2 6 6 4 5 4 5 5 5 9 9 10 9 12 14 15 18 19 22
14 13 10 6 2 3 9 7 6 8 9 10 8 7 5 7 5 2 5 2 3 3 4 4 3 4 7 9 10 12 11 9 8 9 12 13 12 13 17 18 16 17 22
10 12 12 9 3 2 7 7 6 7 8 5 5 4 5 7 8 7 7 5 5 4 1 4 3 4 6 8 11 12 12 13 9 11 11 18 20 15 15 18 21 19 22
7 12 12 10 7 4 4 6 6 6 5 5 7 4 4 5 5 6 6 5 5 6 3 3 4 4 6 6 10 13 14 10 11 14 13 12 20 25 21 19 23 23 22
10 14 13 8 8 5 7 6 5 6 6 6 7 5 4 2 3 3 5 6 4 3 5 2 2 4 6 6 7 8 8 10 11 13 15 15 15 23 23 23 22 24 24
14 15 13 9 11 7 7 8 7 10 8 8 9 7 4 1 2 1 4 5 2 2 4 4 5 6 7 8 8 9 6 9 13 15 13 13 16 17 22 27 23 25 23
16 16 12 9 9 7 5 7 5 10 8 10 12 11 10 7 4 2 6 6 3 2 3 3 2 3 7 10 12 9 10 12 12 13 16 16 15 16 13 18 26 27 26
14 13 10 9 8 7 5 4 2 4 6 5 13 15 14 11 9 5 4 8 7 5 6 3 2 3 3 9 11 13 12 14 15 13 13 13 16 16 16 18 15 17 23
11 10 8 6 7 7 6 5 6 8 10 9 12 13 17 15 13 10 6 7 8 5 5 3 2 3 5 5 8 12 10 14 15 16 10 10 10 14 13 14 14 12 13
9 8 8 10 10 11 11 9 9 8 13 15 15 13 19 16 17 14 13 10 6 6 2 2 1 3 3 5 5 9 9 15 10 14 19 16 17 10 17 14 9 10 14
11 14 14 15 15 15 19 14 11 9 7 7 7 6 15 18 18 17 13 10 9 7 6 4 4 5 9 4 5 4 10 12 17 11 13 16 16 17 16 16 13 9 11
14 13 14 14 14 14 16 20 21 20 19 18 15 13 15 16 18 17 13 9 7 5 4 1 5 3 4 10 9 8 11 14 16 24 8 11 16 17 17 16 15 14 11
1 6 12 12 12 13 11 15 21 21 19 15 14 11 6 5 13 10 6 6 8 8 9 7 7 9 6 9 12 11 11 14 13 17 26 20 16 15 18 19 16 13 10
4 4 8 12 16 16 17 19 19 23 25 18 15 11 9 7 11 13 13 12 11 9 8 8 9 13 16 17 16 14 15 14 17 18 22 21 22 16 16 19 19 18 15
Wind_Direction
98 88 85 66 51 49 50 46 55 70 100 105 107 121 123 110 111 111 106 113 112 117 111 52 7 336 332 50 88 81 99 113 123 123 126 141 147 142 120 93 113 128 131
98 80 74 64 54 50 50 50 59 61 79 102 118 126 118 107 110 119 127 141 155 135 113 104 39 16 327 309 352 94 112 103 103 126 139 141 138 123 105 97 101 149 147
101 92 84 82 75 67 58 60 63 62 64 75 95 133 127 124 141 132 125 63 96 102 72 15 86 104 58 332 294 245 251 202 246 249 191 148 170 144 126 112 91 131 148
107 103 95 81 70 68 67 67 67 68 66 65 70 108 123 130 150 156 160 71 15 31 69 75 86 126 123 12 301 266 231 208 242 265 257 236 219 198 162 137 122 144 153
107 99 85 78 82 85 85 87 81 77 70 69 70 83 135 146 170 202 271 20 24 72 120 117 117 148 88 79 355 315 276 228 229 263 265 253 253 195 176 164 149 147 155
103 103 112 109 92 83 81 86 88 86 82 76 76 76 95 110 129 150 152 159 141 91 143 179 188 174 127 129 175 277 279 254 228 242 269 298 196 176 172 174 174 169 166
125 130 126 124 116 107 99 87 89 90 88 86 81 83 89 110 127 111 169 200 177 130 161 191 216 227 140 165 171 205 243 242 235 244 260 292 222 169 174 176 181 184 184
143 147 148 136 130 124 118 109 93 84 76 76 88 95 89 85 81 74 78 73 92 119 141 196 199 203 253 208 234 235 229 239 229 267 273 268 249 179 174 176 186 183 178
158 148 150 146 135 127 124 125 116 102 90 74 77 88 91 99 88 86 88 89 92 85 77 76 143 212 211 216 220 218 232 238 260 254 275 297 226 179 168 178 191 192 187
91 106 140 141 138 145 145 146 135 141 130 124 95 102 113 108 104 99 96 98 106 108 103 101 103 99 74 23 311 287 286 293 284 279 286 264 193 181 184 181 181 190 182
97 93 71 90 148 178 163 166 144 143 143 145 154 149 145 142 124 110 106 99 93 92 80 70 77 94 101 74 44 317 337 326 319 301 284 227 203 205 195 186 182 181 186
111 101 95 58 23 336 190 169 143 153 159 166 169 165 169 149 150 148 141 147 134 116 111 91 56 50 35 355 344 140 177 306 317 322 314 227 198 209 214 200 196 195 195
123 109 102 103 55 22 90 152 148 144 153 141 124 128 133 135 126 163 162 184 151 102 112 109 339 320 314 305 285 306 297 303 301 304 301 334 290 246 236 224 219 205 207
134 137 129 119 110 57 75 119 125 144 114 118 119 118 136 139 155 112 126 154 192 192 202 185 234 269 295 294 284 287 286 286 300 303 310 300 276 272 273 260 238 229 216
123 145 141 138 147 135 106 99 94 87 99 99 108 91 66 156 155 154 159 162 138 171 75 332 267 253 249 264 280 276 269 270 279 276 282 292 289 266 252 263 262 244 233
161 159 154 153 178 190 160 133 119 108 108 96 101 85 49 107 85 147 159 171 133 108 70 43 12 340 310 277 263 267 275 255 247 255 254 256 271 274 261 255 256 256 247
193 163 155 163 186 178 157 151 170 172 173 148 124 105 61 116 130 123 133 102 123 112 144 112 338 339 333 328 313 305 305 305 296 269 252 241 247 253 255 245 247 249 256
169 157 156 168 174 177 186 189 209 191 175 172 160 160 164 152 189 220 147 121 58 9 116 52 33 2 346 335 327 323 302 309 305 295 285 263 256 245 231 241 247 246 246
150 154 157 145 160 188 203 202 239 204 197 192 175 177 180 192 227 245 156 154 167 219 163 122 12 350 337 333 325 308 307 310 300 298 290 282 280 262 242 224 230 236 238
138 140 146 159 170 183 193 214 175 196 232 234 194 187 186 191 201 224 196 189 191 200 167 184 244 289 327 330 332 324 315 312 314 309 289 290 288 283 261 249 244 237 235
125 134 149 164 197 187 193 205 228 237 239 237 220 201 194 191 194 203 220 214 221 201 172 208 218 246 313 321 331 332 317 296 334 311 337 329 338 328 316 283 248 237 229
155 166 194 212 214 208 204 216 217 227 236 231 233 217 197 192 200 199 213 222 203 178 205 325 353 308 288 314 319 328 327 310 299 328 321 319 314 312 320 317 314 302 284
188 202 206 215 219 217 216 217 229 243 252 225 226 227 210 201 201 199 206 207 206 193 210 221 263 292 302 305 306 291 313 297 310 305 301 303 313 309 300 295 293 266 270
225 223 220 223 229 235 225 220 226 236 240 237 236 226 220 226 217 210 207 209 215 195 184 311 47 18 327 309 312 287 273 282 300 306 287 295 294 304 307 306 291 289 285
129 204 217 227 241 250 247 234 235 238 243 240 243 245 247 216 211 217 184 117 97 80 62 35 11 4 344 326 309 304 297 297 296 293 297 298 296 287 287 289 288 292 284
86 193 210 230 246 252 252 251 239 238 239 230 224 210 184 143 106 97 101 92 90 79 37 7 354 344 325 306 295 287 284 284 287 287 288 290 292 290 291 296 301 298 287